OBJECT V, 51843

Orbit data source: Space-Track

You're viewing an Uncataloged Satellite

Recently launched and/or uncataloged satellites may have evolving metadata. Metadata may include but not limited to: Owner, Maufacturer, Bus, Motor, and Mission.

OBJECT V, 51843 is a satellite owned by Tiandi Network (CN) in SSO that was launched on Sun, 27 Feb 2022 UTC via a CHANG ZHENG 8 launch vehicle from the Wenchang Satellite Launch Center (WSC). Unknown objects in Earth's orbit typically refer to objects detected orbiting the Earth but have not yet been identified or cataloged. These objects could be anything from previously untracked satellites, spent rocket stages, debris from satellite collisions, or even natural meteoroids temporarily captured by Earth's gravity.

Loading next visibility...
Identifier
51843, 2022-019V
Orbit
SSO
Last TLE update
11 hours ago
Origin
Flag of CNTIANDI (CN / PRC)
Manufacturer
Changsha Tianyi
Mission
Non-operational Commercial Radar Imaging
Bus & Motor
TIANXIAN, Unknown motor
Mass
325 kg wet, 325 kg dry
Launch date (UTC)
2022-02-27 (3 years ago)
Launch vehicle
CHANG ZHENG 8
Launch site
Wenchang Satellite Launch Center (WSC)
Object type
Unknown
Shape & HBR
Box + 2 Pan, 4 m
Radar Cross Section
2.315 m², Large (>1 m²)

Expand to show TLE details & history

TLE from 11 hours ago
0 OBJECT V
1 51843U 22019V   25163.17746042  .00013971  00000-0  38786-3 0  9999
2 51843  97.3907 240.0193 0009877  63.6450 296.5807 15.36964213182268
Epoch: 2025-06-12T04:15Z
TLE epoch observation values (Epoch: 2025-06-12T04:15:32.58Z)
Latitude
-0.00005°
Longitude
-84.6158°
Altitude
455.191 km
Speed
7.641 km/s
True Right ascension
16h 00m 04s
True Declination
0° 00' 00"
Sunlit
Object was in full shadow at epoch
Visualization orbit readout
Latitude
12.22462°
Longitude
-85.75691°
Altitude
453.025 km
Speed
7.644 km/s
Apparent Right ascension
14h 58m 11s
Apparent Declination
-13° 22' 03"
Sunlit
Object is in full shadow
Visualization observer readout
Local Sidereal Time
01:39:19
Azimuth
321.344° NNW
Elevation
-58.299°
Doppler factor
1
Orbital elements
Apogee altitude
458.781 km
Perigee altitude
445.289 km
Semi-major axis
6,830.172 km
Eccentricity
0.00099
Inclination
97.3907°
RAAN
240.0193°
Arg. of periapsis
63.645°
True anomaly
Unknown
Mean anomaly
296.5807°
Eccentric anomaly
Unknown
Mean motion
3.84499 °/min
Orbital period
93.63 mins
BSTAR
0.00038786
Loading maneuver chart data...
Loading SW <> Apogee altitude chart data...
Loading historical data...
Loading historical data...
Loading historical data...
Loading historical data...
Loading historical data...
Loading historical data...
Loading historical data...

OBJECT V Visibility forecast

Observer location: undefined°, undefined°

Span
Click to sort rows by Start time (UTC) header in descending order
Start Az.
Max El. time (UTC)
Max El. Az.
Max El.
End time (UTC)
End Az.
4 mins2025-06-12 17:19:59.405Z47.877° ENE2025-06-12 17:21:59.405Z90.917° ESE21.5°2025-06-12 17:23:59.405Z139.057° SSE
5 mins2025-06-13 05:23:59.405Z187.976° SSW2025-06-13 05:25:59.405Z269.22° W39.611°2025-06-13 05:28:59.405Z338.673° N
|